Location: Florence
(33.9745°N, 118.2481°W)
Time: 18:42:32
(UTC+00:00)

ATLAS CENTAUR R/B - Pass Details

Date: 23 March 2023
Orbit: 453 x 639 km, 64.7° (Epoch: 13 May)

Event Time Altitude Azimuth Distance (km) Brightness Sun altitude
Exits shadow 12:23:49 13° 322° (NW) 1,784 3.7 -19.1°
Drops below altitude 10° 12:25:18 10° 341° (NNW) 1,969 4.1 -18.8°
Sets 12:28:38 0° 9° (N) 2,835 5.3 -18.1°
